Iron Mountain, MI

3:20 AM CDT on August 24, 2016 (GMT -0500)
Ford

Weather History for KIMT - January, 2012

Change the Weather History Date:

Tuesday, January 3, 2012

  Actual Average Record
Temperature  
Mean Temperature 6 °F -  
Max Temperature 17 °F 23 °F 44 °F (2007)
Min Temperature -4 °F 4 °F -22 °F (2014)
Degree Days  
Heating Degree Days 58    
Moisture  
Dew Point -1 °F    
Average Humidity 69    
Maximum Humidity 87    
Minimum Humidity 41    
Precipitation  
Precipitation 0.00 in - - ()
Sea Level Pressure  
Sea Level Pressure 30.17 in    
Wind  
Wind Speed 4 mph (South)    
Max Wind Speed 13 mph    
Max Gust Speed 21 mph    
Visibility 10 miles    
Events      
Averages and records for this station are not official NWS values.
T = Trace of Precipitation, MM = Missing Value Source: NWS Daily Summary

Daily Weather History Graph

Daily Weather History Graph

Search for Another Location

Airport or City:

Trip Planner

Search our weather history database for the weather conditions in past years. The results will help you decide how hot, cold, wet, or windy it might be!

Date:

Astronomy

Jan. 03, 2012 Rise Set
Actual Time 7:33 AM CST 4:20 PM CST
Civil Twilight 6:59 AM CST 4:54 PM CST
Nautical Twilight 6:21 AM CST 5:31 PM CST
Astronomical Twilight 5:45 AM CST 6:08 PM CST
Moon 12:11 PM CST (1/3) 2:18 AM CST (1/3)
Length of Visible Light 9h 54m
Length of Day
8h 46m
Waxing Gibbous, 73% of the Moon is Illuminated
Jan 3
Waxing Gibbous
Jan 9
Full
Jan 16
Last Quarter
Jan 23
New
Jan 30
First Quarter

Hourly Weather History & Observations

Time (CST) Temp. Windchill Dew Point Humidity Pressure Visibility Wind Dir Wind Speed Gust Speed Precip Events Conditions
12:54 AM 3.9 °F -8.2 °F -0.9 °F 80% 30.35 in 10.0 mi WNW 6.9 mph - N/A   Clear
1:54 AM -0.0 °F - -4.0 °F 83% 30.35 in 10.0 mi Calm Calm - N/A   Clear
2:54 AM 1.0 °F - -2.0 °F 87% 30.35 in 10.0 mi Calm Calm - N/A   Clear
3:54 AM -4.0 °F - -7.1 °F 87% 30.35 in 10.0 mi Calm Calm - N/A   Clear
4:54 AM -2.0 °F - -5.1 °F 87% 30.36 in 10.0 mi Calm Calm - N/A   Clear
5:54 AM -2.9 °F - -8.0 °F 79% 30.36 in 10.0 mi Calm Calm - N/A   Mostly Cloudy
6:54 AM -2.0 °F - -6.0 °F 83% 30.35 in 10.0 mi Calm Calm - N/A   Mostly Cloudy
8:54 AM 3.9 °F - -0.0 °F 84% 30.34 in 10.0 mi Calm Calm - N/A   Overcast
9:54 AM 7.0 °F - 1.9 °F 80% 30.32 in 10.0 mi Calm Calm - N/A   Overcast
10:54 AM 12.0 °F - 3.9 °F 70% 30.28 in 10.0 mi Calm Calm - N/A   Clear
11:54 AM 15.1 °F 5.2 °F 3.0 °F 59% 30.23 in 10.0 mi South 6.9 mph - N/A   Partly Cloudy
12:54 PM 16.0 °F 3.6 °F -0.9 °F 47% 30.19 in 10.0 mi South 10.4 mph - N/A   Overcast
1:54 PM 17.1 °F 4.3 °F -2.9 °F 41% 30.13 in 10.0 mi South 11.5 mph - N/A   Overcast
2:54 PM 17.1 °F 4.3 °F -2.9 °F 41% 30.09 in 10.0 mi South 11.5 mph - N/A   Clear
3:54 PM 16.0 °F 3.6 °F -2.0 °F 45% 30.04 in 10.0 mi SSE 10.4 mph 20.7 mph N/A   Clear
4:54 PM 14.0 °F -0.2 °F -0.0 °F 54% 30.01 in 10.0 mi South 12.7 mph - N/A   Clear
5:54 PM 14.0 °F 1.2 °F 1.9 °F 59% 30.00 in 10.0 mi South 10.4 mph - N/A   Scattered Clouds
6:54 PM 12.9 °F -0.2 °F 3.0 °F 65% 30.00 in 10.0 mi South 10.4 mph - N/A   Clear
8:54 PM 12.0 °F 0.5 °F 3.9 °F 70% 29.95 in 10.0 mi South 8.1 mph - N/A   Clear
9:54 PM 12.0 °F 2.7 °F 3.9 °F 70% 29.94 in 10.0 mi South 5.8 mph - N/A   Clear
10:54 PM 9.0 °F 0.6 °F 3.0 °F 77% 29.92 in 10.0 mi SE 4.6 mph - N/A   Clear
11:54 PM 8.1 °F 1.4 °F 3.0 °F 80% 29.89 in 10.0 mi SSE 3.5 mph - N/A   Clear